Overview Statistics Trail Chart Weather Telemetry Raw packets
 

This is the latest recevied weather packets stored in our database for station/object KE5QKR. If no packets are shown the sender has not sent any weather packets the latest 10 day(s).

<< 20 21 22 23 24 25 26 >>
Time Temp. Humidity Pressure Rain* Wind** Luminosity Snow
1777834802 23.89° C 46% 1019.5 hPa 0 mm - 811 W/m² -
1777834498 23.33° C 40% 1019.2 hPa 0 mm - 819 W/m² -
1777834198 22.78° C 42% 1019.4 hPa 0 mm - 823 W/m² -
1777833894 22.78° C 43% 1019.7 hPa 0 mm - 829 W/m² -
1777833591 22.78° C 39% 1019.8 hPa 0 mm - 837 W/m² -
1777833288 22.78° C 40% 1019.6 hPa 0 mm - 843 W/m² -
1777832984 22.78° C 41% 1019.7 hPa 0 mm - 849 W/m² -
1777832683 22.78° C 38% 1019.8 hPa 0 mm - 851 W/m² -
1777832380 22.78° C 40% 1019.5 hPa 0 mm - 856 W/m² -
1777832077 22.78° C 41% 1019.7 hPa 0 mm - 860 W/m² -
1777831773 22.78° C 38% 1019.8 hPa 0 mm - 860 W/m² -
1777831472 22.22° C 40% 1019.8 hPa 0 mm - 861 W/m² -
1777831168 22.78° C 42% 1020.1 hPa 0 mm - 865 W/m² -
1777830866 22.78° C 39% 1020.1 hPa 0 mm - 866 W/m² -
1777830562 22.78° C 37% 1019.9 hPa 0 mm - 866 W/m² -
1777830261 22.78° C 42% 1020.1 hPa 0 mm - 866 W/m² -
1777829960 22.78° C 40% 1020.2 hPa 0 mm - 864 W/m² -
1777829657 22.78° C 41% 1020.3 hPa 0 mm - 865 W/m² -
1777829354 22.22° C 40% 1020.4 hPa 0 mm - 863 W/m² -
1777829051 22.22° C 40% 1020.6 hPa 0 mm - 860 W/m² -
1777828747 22.22° C 41% 1020.6 hPa 0 mm - 862 W/m² -
1777828444 22.78° C 40% 1020.6 hPa 0 mm - 854 W/m² -
1777828141 22.78° C 41% 1020.8 hPa 0 mm - 852 W/m² -
1777827838 22.78° C 40% 1020.7 hPa 0 mm - 850 W/m² -
1777827535 22.22° C 39% 1021 hPa 0 mm - 848 W/m² -

* Rain latest hour (hover to see other rain measurements)
** Current wind speed in m/s (hover to see current wind gust speed)